QPF
0.01 0.02 0.02 0.03 0.02 0.02 0.02 0.01 0.01 0.01 0.01 0.01 0.00 0.01 0.01 0.02 0.03 0.05 0.04 0.03 0.03 0.06 0.09 0.13 0.16 0.17 0.17 0.12 0.09 0.07 0.03 0.03 0.05 0.05 0.06 0.07 0.08 0.09 0.11 0.17 0.27 0.23 0.15 0.13 0.12 0.11 0.14 0.16 0.14
0.02 0.02 0.02 0.04 0.04 0.03 0.02 0.02 0.01 0.01 0.01 0.01 0.01 0.01 0.01 0.03 0.04 0.05 0.04 0.03 0.03 0.05 0.08 0.14 0.16 0.19 0.18 0.13 0.09 0.07 0.05 0.05 0.05 0.04 0.05 0.06 0.07 0.10 0.17 0.26 0.29 0.19 0.11 0.08 0.08 0.09 0.11 0.12 0.14
0.01 0.01 0.02 0.03 0.03 0.03 0.03 0.02 0.01 0.01 0.01 0.01 0.01 0.03 0.06 0.07 0.06 0.04 0.03 0.03 0.03 0.04 0.07 0.15 0.17 0.20 0.16 0.12 0.10 0.08 0.06 0.06 0.06 0.05 0.05 0.06 0.08 0.12 0.21 0.26 0.18 0.12 0.08 0.06 0.06 0.07 0.09 0.10 0.12
0.01 0.02 0.03 0.03 0.02 0.02 0.03 0.02 0.01 0.01 0.02 0.01 0.01 0.04 0.05 0.04 0.04 0.03 0.03 0.04 0.05 0.06 0.09 0.13 0.15 0.17 0.15 0.14 0.13 0.08 0.08 0.07 0.05 0.05 0.06 0.09 0.10 0.11 0.14 0.11 0.11 0.10 0.07 0.06 0.06 0.07 0.09 0.13 0.10
0.01 0.02 0.03 0.02 0.02 0.03 0.03 0.03 0.02 0.01 0.01 0.01 0.01 0.02 0.03 0.02 0.03 0.02 0.02 0.04 0.06 0.09 0.11 0.12 0.14 0.14 0.11 0.11 0.11 0.08 0.06 0.06 0.05 0.06 0.07 0.07 0.06 0.07 0.08 0.07 0.09 0.10 0.08 0.07 0.08 0.07 0.10 0.16 0.10
0.01 0.01 0.03 0.03 0.03 0.02 0.02 0.02 0.01 0.01 0.01 0.01 0.01 0.01 0.03 0.04 0.04 0.03 0.03 0.06 0.08 0.13 0.13 0.13 0.12 0.11 0.10 0.08 0.06 0.05 0.05 0.05 0.04 0.04 0.04 0.04 0.04 0.05 0.09 0.10 0.10 0.09 0.10 0.10 0.10 0.10 0.08 0.11 0.11
0.01 0.02 0.02 0.03 0.03 0.03 0.02 0.02 0.01 0.01 0.01 0.01 0.00 0.01 0.04 0.05 0.04 0.03 0.04 0.08 0.11 0.15 0.15 0.12 0.09 0.09 0.09 0.06 0.05 0.04 0.04 0.03 0.04 0.03 0.03 0.03 0.03 0.03 0.05 0.07 0.07 0.10 0.12 0.11 0.12 0.13 0.12 0.11 0.13
0.01 0.02 0.02 0.02 0.02 0.03 0.02 0.01 0.02 0.02 0.02 0.02 0.02 0.03 0.04 0.04 0.03 0.03 0.04 0.07 0.10 0.11 0.12 0.10 0.07 0.06 0.08 0.07 0.04 0.03 0.03 0.03 0.04 0.04 0.03 0.03 0.04 0.06 0.07 0.05 0.06 0.08 0.09 0.09 0.15 0.26 0.20 0.15 0.15
0.01 0.01 0.02 0.02 0.02 0.04 0.03 0.02 0.02 0.03 0.02 0.02 0.02 0.02 0.02 0.03 0.02 0.01 0.02 0.04 0.07 0.09 0.08 0.06 0.05 0.04 0.06 0.07 0.04 0.04 0.04 0.04 0.04 0.06 0.05 0.04 0.05 0.07 0.07 0.06 0.08 0.09 0.09 0.08 0.15 0.27 0.20 0.17 0.18
0.01 0.01 0.03 0.03 0.03 0.03 0.02 0.01 0.01 0.02 0.02 0.02 0.02 0.01 0.02 0.02 0.01 0.01 0.02 0.03 0.04 0.04 0.03 0.03 0.03 0.03 0.05 0.05 0.05 0.05 0.04 0.03 0.03 0.05 0.06 0.06 0.05 0.05 0.05 0.05 0.08 0.11 0.09 0.08 0.10 0.16 0.13 0.12 0.15
0.00 0.01 0.02 0.02 0.02 0.02 0.02 0.01 0.01 0.01 0.02 0.02 0.02 0.02 0.02 0.01 0.01 0.01 0.04 0.04 0.02 0.01 0.01 0.01 0.01 0.02 0.02 0.04 0.03 0.03 0.04 0.04 0.04 0.05 0.05 0.05 0.06 0.06 0.06 0.06 0.07 0.11 0.09 0.08 0.06 0.07 0.07 0.07 0.10
0.00 0.00 0.00 0.01 0.01 0.01 0.02 0.02 0.02 0.02 0.03 0.04 0.03 0.02 0.01 0.01 0.01 0.03 0.03 0.02 0.01 0.01 0.01 0.01 0.01 0.01 0.02 0.02 0.02 0.02 0.03 0.03 0.04 0.04 0.04 0.05 0.06 0.07 0.07 0.06 0.06 0.07 0.08 0.09 0.07 0.07 0.08 0.07 0.06
0.00 0.00 0.00 0.00 0.00 0.01 0.01 0.02 0.02 0.03 0.03 0.02 0.02 0.01 0.01 0.01 0.02 0.02 0.01 0.02 0.01 0.01 0.01 0.01 0.01 0.02 0.02 0.02 0.02 0.02 0.04 0.03 0.04 0.06 0.08 0.06 0.08 0.09 0.07 0.06 0.06 0.06 0.06 0.05 0.07 0.06 0.08 0.08 0.09
0.00 0.00 0.00 0.00 0.00 0.01 0.02 0.02 0.02 0.03 0.01 0.01 0.01 0.01 0.01 0.01 0.01 0.02 0.01 0.02 0.01 0.01 0.01 0.01 0.01 0.02 0.02 0.02 0.02 0.04 0.04 0.04 0.06 0.11 0.10 0.06 0.07 0.09 0.09 0.08 0.05 0.05 0.05 0.04 0.06 0.08 0.09 0.08 0.09
0.00 0.00 0.00 0.00 0.00 0.01 0.02 0.02 0.02 0.01 0.01 0.01 0.01 0.00 0.00 0.00 0.01 0.02 0.02 0.02 0.02 0.01 0.01 0.01 0.01 0.01 0.01 0.02 0.02 0.04 0.04 0.04 0.06 0.07 0.07 0.06 0.06 0.08 0.08 0.06 0.05 0.06 0.06 0.06 0.06 0.09 0.08 0.06 0.06
0.00 0.00 0.00 0.00 0.00 0.01 0.01 0.02 0.02 0.01 0.00 0.00 0.00 0.00 0.00 0.00 0.00 0.01 0.02 0.01 0.01 0.01 0.02 0.02 0.01 0.01 0.01 0.02 0.03 0.04 0.05 0.05 0.06 0.07 0.08 0.06 0.06 0.06 0.07 0.05 0.05 0.06 0.06 0.06 0.07 0.08 0.08 0.07 0.07
0.00 0.00 0.00 0.00 0.00 0.00 0.01 0.01 0.01 0.00 0.00 0.00 0.00 0.00 0.00 0.00 0.00 0.01 0.01 0.01 0.01 0.01 0.01 0.02 0.02 0.02 0.02 0.02 0.04 0.05 0.05 0.05 0.06 0.07 0.08 0.07 0.06 0.07 0.08 0.07 0.06 0.07 0.07 0.08 0.07 0.08 0.09 0.08 0.07
0.00 0.00 0.00 0.00 0.00 0.00 0.01 0.01 0.00 0.00 0.00 0.00 0.00 0.00 0.00 0.00 0.00 0.01 0.01 0.01 0.00 0.01 0.01 0.03 0.03 0.04 0.03 0.03 0.04 0.05 0.05 0.05 0.06 0.08 0.08 0.09 0.09 0.08 0.08 0.08 0.07 0.07 0.07 0.08 0.08 0.10 0.11 0.08 0.07
0.00 0.00 0.00 0.00 0.00 0.00 0.01 0.01 0.01 0.00 0.00 0.00 0.00 0.00 0.00 0.00 0.00 0.01 0.01 0.01 0.01 0.01 0.01 0.03 0.06 0.05 0.05 0.04 0.04 0.05 0.05 0.05 0.06 0.06 0.07 0.08 0.10 0.07 0.06 0.06 0.06 0.06 0.05 0.05 0.07 0.08 0.08 0.07 0.05
0.00 0.00 0.00 0.00 0.00 0.00 0.01 0.01 0.01 0.00 0.00 0.00 0.00 0.00 0.00 0.00 0.00 0.01 0.01 0.02 0.01 0.01 0.02 0.03 0.05 0.06 0.06 0.04 0.04 0.04 0.03 0.03 0.05 0.07 0.09 0.08 0.08 0.06 0.05 0.06 0.07 0.07 0.06 0.06 0.07 0.07 0.07 0.07 0.06
0.00 0.00 0.00 0.00 0.00 0.00 0.00 0.01 0.01 0.01 0.00 0.00 0.00 0.00 0.00 0.00 0.00 0.01 0.02 0.02 0.01 0.01 0.01 0.02 0.03 0.08 0.09 0.05 0.03 0.03 0.04 0.04 0.06 0.07 0.11 0.08 0.07 0.06 0.06 0.07 0.07 0.06 0.05 0.07 0.08 0.06 0.08 0.08 0.06
0.00 0.00 0.00 0.00 0.00 0.00 0.00 0.00 0.01 0.00 0.00 0.00 0.00 0.00 0.00 0.00 0.01 0.01 0.02 0.02 0.01 0.01 0.01 0.01 0.02 0.06 0.07 0.06 0.04 0.03 0.04 0.05 0.05 0.06 0.09 0.07 0.06 0.06 0.06 0.07 0.06 0.06 0.05 0.06 0.06 0.06 0.07 0.08 0.06
0.00 0.00 0.00 0.00 0.00 0.00 0.00 0.00 0.00 0.00 0.00 0.00 0.00 0.00 0.00 0.01 0.01 0.00 0.01 0.02 0.01 0.01 0.01 0.01 0.01 0.04 0.04 0.04 0.05 0.06 0.05 0.05 0.04 0.04 0.06 0.07 0.06 0.06 0.06 0.07 0.06 0.06 0.04 0.04 0.04 0.07 0.08 0.06 0.04
0.00 0.00 0.00 0.00 0.00 0.00 0.00 0.00 0.00 0.00 0.00 0.00 0.00 0.00 0.01 0.01 0.00 0.00 0.00 0.02 0.02 0.01 0.01 0.00 0.01 0.03 0.03 0.06 0.05 0.07 0.09 0.07 0.05 0.05 0.06 0.06 0.07 0.11 0.10 0.06 0.05 0.06 0.06 0.06 0.06 0.07 0.08 0.06 0.04
0.00 0.00 0.01 0.01 0.00 0.01 0.00 0.00 0.00 0.00 0.00 0.00 0.00 0.00 0.01 0.00 0.00 0.00 0.00 0.00 0.01 0.01 0.01 0.00 0.01 0.02 0.04 0.08 0.06 0.06 0.08 0.07 0.05 0.05 0.05 0.06 0.07 0.11 0.10 0.05 0.05 0.06 0.07 0.07 0.07 0.09 0.08 0.06 0.05
0.00 0.00 0.01 0.01 0.01 0.00 0.00 0.00 0.00 0.00 0.00 0.00 0.00 0.00 0.01 0.00 0.00 0.00 0.00 0.00 0.00 0.02 0.02 0.01 0.01 0.01 0.02 0.09 0.08 0.06 0.07 0.07 0.06 0.05 0.04 0.05 0.05 0.07 0.06 0.04 0.04 0.05 0.05 0.05 0.07 0.08 0.07 0.06 0.05
0.00 0.00 0.00 0.00 0.00 0.00 0.00 0.00 0.00 0.00 0.01 0.00 0.00 0.00 0.00 0.00 0.00 0.00 0.00 0.00 0.01 0.02 0.02 0.02 0.01 0.01 0.02 0.08 0.10 0.07 0.07 0.08 0.06 0.06 0.05 0.05 0.05 0.04 0.05 0.04 0.04 0.05 0.04 0.04 0.05 0.06 0.05 0.04 0.04
0.00 0.01 0.00 0.00 0.00 0.00 0.00 0.00 0.00 0.00 0.00 0.00 0.00 0.00 0.00 0.00 0.00 0.00 0.00 0.00 0.01 0.02 0.01 0.03 0.03 0.02 0.01 0.03 0.08 0.09 0.10 0.08 0.08 0.07 0.06 0.05 0.05 0.05 0.08 0.07 0.05 0.04 0.03 0.03 0.05 0.04 0.03 0.02 0.02
0.00 0.00 0.01 0.00 0.00 0.00 0.00 0.00 0.00 0.00 0.00 0.00 0.00 0.00 0.00 0.00 0.00 0.01 0.01 0.01 0.01 0.01 0.01 0.02 0.03 0.02 0.01 0.01 0.03 0.08 0.10 0.07 0.08 0.06 0.05 0.04 0.04 0.06 0.09 0.08 0.06 0.05 0.03 0.03 0.03 0.03 0.03 0.03 0.03
0.00 0.00 0.00 0.00 0.00 0.00 0.00 0.00 0.00 0.00 0.00 0.00 0.00 0.00 0.00 0.00 0.00 0.00 0.00 0.01 0.01 0.01 0.01 0.02 0.03 0.02 0.01 0.01 0.02 0.07 0.08 0.06 0.07 0.05 0.03 0.03 0.04 0.04 0.05 0.06 0.05 0.03 0.03 0.03 0.03 0.03 0.03 0.02 0.03
MSLP
1008.62 1009.06 1009.65 1010.34 1011.03 1011.63 1012.09 1012.36 1012.44 1012.39 1012.26 1012.12 1012.00 1011.92 1011.86 1011.77 1011.61 1011.37 1011.06 1010.70 1010.35 1010.07 1009.87 1009.76 1009.69 1009.61 1009.46 1009.18 1008.78 1008.27 1007.69 1007.11 1006.55 1006.01 1005.45 1004.81 1004.02 1003.05 1001.93 1000.74 999.63 998.75 998.26 998.24 998.72 999.61 1000.79 1002.09 1003.35
1008.64 1009.16 1009.82 1010.54 1011.23 1011.81 1012.20 1012.39 1012.39 1012.25 1012.04 1011.82 1011.66 1011.55 1011.48 1011.41 1011.30 1011.12 1010.88 1010.59 1010.31 1010.08 1009.92 1009.84 1009.80 1009.75 1009.62 1009.38 1009.01 1008.54 1008.02 1007.50 1007.02 1006.59 1006.19 1005.75 1005.22 1004.57 1003.79 1002.94 1002.13 1001.49 1001.11 1001.09 1001.43 1002.08 1002.94 1003.88 1004.77
1008.76 1009.33 1010.00 1010.71 1011.36 1011.87 1012.19 1012.31 1012.23 1012.02 1011.75 1011.50 1011.30 1011.18 1011.11 1011.06 1010.98 1010.85 1010.65 1010.42 1010.19 1010.00 1009.88 1009.84 1009.84 1009.82 1009.74 1009.55 1009.24 1008.83 1008.38 1007.92 1007.52 1007.18 1006.89 1006.62 1006.29 1005.89 1005.39 1004.83 1004.28 1003.83 1003.57 1003.54 1003.78 1004.22 1004.81 1005.44 1006.03
1008.95 1009.51 1010.15 1010.80 1011.37 1011.80 1012.05 1012.10 1011.98 1011.74 1011.47 1011.21 1011.02 1010.90 1010.84 1010.80 1010.73 1010.61 1010.44 1010.23 1010.02 1009.86 1009.78 1009.76 1009.79 1009.82 1009.79 1009.67 1009.44 1009.11 1008.73 1008.34 1008.01 1007.74 1007.53 1007.36 1007.18 1006.95 1006.66 1006.32 1005.97 1005.69 1005.52 1005.51 1005.67 1005.96 1006.34 1006.74 1007.10
1009.15 1009.67 1010.24 1010.79 1011.26 1011.60 1011.79 1011.80 1011.68 1011.47 1011.23 1011.01 1010.86 1010.77 1010.72 1010.68 1010.61 1010.48 1010.29 1010.08 1009.87 1009.71 1009.63 1009.63 1009.69 1009.76 1009.78 1009.73 1009.57 1009.32 1009.02 1008.70 1008.42 1008.21 1008.06 1007.95 1007.86 1007.75 1007.60 1007.41 1007.22 1007.06 1006.98 1006.99 1007.11 1007.30 1007.53 1007.77 1007.96
1009.32 1009.77 1010.22 1010.65 1011.02 1011.28 1011.41 1011.43 1011.34 1011.20 1011.05 1010.92 1010.83 1010.79 1010.76 1010.72 1010.63 1010.47 1010.26 1010.01 1009.78 1009.61 1009.51 1009.51 1009.57 1009.66 1009.72 1009.71 1009.62 1009.44 1009.20 1008.95 1008.72 1008.55 1008.43 1008.37 1008.33 1008.28 1008.22 1008.14 1008.06 1008.00 1007.98 1008.03 1008.13 1008.27 1008.42 1008.55 1008.64
1009.44 1009.78 1010.11 1010.41 1010.66 1010.85 1010.96 1011.00 1010.99 1010.95 1010.92 1010.90 1010.91 1010.93 1010.94 1010.90 1010.78 1010.60 1010.34 1010.06 1009.80 1009.59 1009.46 1009.43 1009.48 1009.56 1009.63 1009.65 1009.59 1009.46 1009.27 1009.07 1008.89 1008.75 1008.66 1008.62 1008.61 1008.60 1008.60 1008.59 1008.58 1008.59 1008.63 1008.71 1008.82 1008.94 1009.04 1009.11 1009.14
1009.50 1009.72 1009.92 1010.09 1010.24 1010.37 1010.47 1010.55 1010.63 1010.71 1010.80 1010.91 1011.02 1011.12 1011.16 1011.13 1011.01 1010.80 1010.52 1010.21 1009.92 1009.68 1009.53 1009.46 1009.47 1009.52 1009.57 1009.57 1009.52 1009.41 1009.26 1009.09 1008.94 1008.83 1008.76 1008.74 1008.75 1008.78 1008.81 1008.84 1008.88 1008.94 1009.03 1009.13 1009.26 1009.37 1009.45 1009.48 1009.48
1009.51 1009.62 1009.70 1009.76 1009.81 1009.88 1009.98 1010.11 1010.27 1010.46 1010.67 1010.90 1011.10 1011.26 1011.35 1011.35 1011.24 1011.03 1010.75 1010.44 1010.14 1009.89 1009.71 1009.61 1009.58 1009.58 1009.58 1009.55 1009.47 1009.36 1009.21 1009.06 1008.93 1008.84 1008.80 1008.80 1008.83 1008.87 1008.92 1008.98 1009.05 1009.14 1009.25 1009.38 1009.51 1009.61 1009.68 1009.70 1009.68
1009.51 1009.53 1009.50 1009.46 1009.44 1009.47 1009.56 1009.72 1009.94 1010.21 1010.51 1010.82 1011.10 1011.31 1011.45 1011.47 1011.39 1011.21 1010.97 1010.68 1010.41 1010.18 1010.00 1009.88 1009.81 1009.75 1009.70 1009.61 1009.50 1009.35 1009.19 1009.05 1008.93 1008.87 1008.84 1008.86 1008.91 1008.96 1009.02 1009.09 1009.17 1009.27 1009.38 1009.51 1009.63 1009.74 1009.80 1009.81 1009.78
1009.54 1009.48 1009.37 1009.26 1009.18 1009.17 1009.25 1009.42 1009.67 1009.98 1010.33 1010.67 1010.99 1011.24 1011.40 1011.47 1011.43 1011.30 1011.11 1010.90 1010.68 1010.49 1010.34 1010.23 1010.13 1010.04 1009.93 1009.79 1009.63 1009.44 1009.27 1009.12 1009.02 1008.96 1008.96 1008.99 1009.04 1009.09 1009.15 1009.21 1009.28 1009.36 1009.47 1009.58 1009.69 1009.79 1009.84 1009.84 1009.81
1009.60 1009.50 1009.35 1009.19 1009.08 1009.04 1009.10 1009.26 1009.50 1009.80 1010.14 1010.48 1010.80 1011.05 1011.23 1011.32 1011.33 1011.27 1011.16 1011.03 1010.90 1010.78 1010.68 1010.59 1010.50 1010.39 1010.25 1010.07 1009.87 1009.66 1009.47 1009.32 1009.22 1009.17 1009.17 1009.21 1009.26 1009.30 1009.34 1009.38 1009.42 1009.47 1009.55 1009.64 1009.73 1009.81 1009.86 1009.86 1009.83
1009.69 1009.59 1009.43 1009.27 1009.15 1009.09 1009.13 1009.25 1009.45 1009.72 1010.01 1010.30 1010.57 1010.80 1010.97 1011.07 1011.12 1011.13 1011.11 1011.07 1011.03 1011.00 1010.97 1010.93 1010.86 1010.75 1010.60 1010.41 1010.20 1009.98 1009.79 1009.64 1009.54 1009.50 1009.50 1009.53 1009.56 1009.59 1009.60 1009.59 1009.59 1009.61 1009.64 1009.70 1009.78 1009.85 1009.90 1009.92 1009.90
1009.80 1009.73 1009.60 1009.46 1009.35 1009.30 1009.32 1009.41 1009.56 1009.75 1009.96 1010.17 1010.37 1010.55 1010.69 1010.79 1010.87 1010.93 1010.98 1011.02 1011.07 1011.12 1011.15 1011.17 1011.14 1011.07 1010.94 1010.77 1010.57 1010.37 1010.19 1010.05 1009.96 1009.92 1009.92 1009.93 1009.93 1009.92 1009.89 1009.84 1009.80 1009.77 1009.77 1009.81 1009.87 1009.95 1010.01 1010.05 1010.06
1009.89 1009.86 1009.79 1009.71 1009.65 1009.63 1009.64 1009.70 1009.79 1009.90 1010.02 1010.14 1010.25 1010.36 1010.45 1010.54 1010.63 1010.72 1010.81 1010.92 1011.03 1011.14 1011.23 1011.30 1011.33 1011.30 1011.21 1011.08 1010.93 1010.76 1010.61 1010.49 1010.42 1010.38 1010.36 1010.35 1010.32 1010.28 1010.20 1010.12 1010.03 1009.97 1009.94 1009.96 1010.02 1010.11 1010.20 1010.27 1010.32
1009.92 1009.96 1009.97 1009.97 1009.97 1009.99 1010.02 1010.06 1010.09 1010.13 1010.15 1010.18 1010.21 1010.24 1010.29 1010.35 1010.43 1010.53 1010.65 1010.79 1010.94 1011.08 1011.22 1011.33 1011.40 1011.43 1011.40 1011.33 1011.23 1011.11 1011.01 1010.92 1010.86 1010.81 1010.78 1010.75 1010.70 1010.62 1010.51 1010.39 1010.28 1010.19 1010.15 1010.17 1010.24 1010.34 1010.46 1010.57 1010.66
1009.87 1009.98 1010.08 1010.17 1010.25 1010.33 1010.38 1010.41 1010.40 1010.37 1010.31 1010.25 1010.20 1010.17 1010.17 1010.21 1010.28 1010.38 1010.51 1010.66 1010.82 1010.98 1011.14 1011.28 1011.39 1011.47 1011.50 1011.49 1011.46 1011.40 1011.34 1011.29 1011.24 1011.20 1011.16 1011.10 1011.03 1010.93 1010.81 1010.67 1010.55 1010.46 1010.42 1010.43 1010.51 1010.63 1010.77 1010.92 1011.05
1009.73 1009.91 1010.09 1010.28 1010.44 1010.58 1010.66 1010.68 1010.64 1010.55 1010.42 1010.29 1010.17 1010.09 1010.05 1010.07 1010.13 1010.24 1010.37 1010.52 1010.68 1010.85 1011.02 1011.18 1011.33 1011.45 1011.54 1011.60 1011.63 1011.63 1011.62 1011.59 1011.56 1011.52 1011.48 1011.41 1011.33 1011.22 1011.10 1010.97 1010.86 1010.77 1010.74 1010.76 1010.84 1010.96 1011.12 1011.28 1011.44
1009.53 1009.77 1010.02 1010.29 1010.53 1010.71 1010.82 1010.83 1010.74 1010.59 1010.39 1010.19 1010.02 1009.90 1009.84 1009.85 1009.92 1010.04 1010.18 1010.34 1010.51 1010.69 1010.87 1011.05 1011.23 1011.40 1011.54 1011.67 1011.76 1011.82 1011.84 1011.85 1011.83 1011.79 1011.74 1011.68 1011.61 1011.52 1011.42 1011.31 1011.22 1011.16 1011.13 1011.14 1011.21 1011.32 1011.47 1011.63 1011.79
1009.31 1009.59 1009.90 1010.23 1010.52 1010.73 1010.84 1010.82 1010.69 1010.46 1010.19 1009.91 1009.69 1009.53 1009.47 1009.48 1009.57 1009.72 1009.89 1010.08 1010.27 1010.47 1010.68 1010.89 1011.11 1011.33 1011.53 1011.71 1011.86 1011.97 1012.03 1012.06 1012.05 1012.02 1011.98 1011.93 1011.88 1011.82 1011.76 1011.71 1011.65 1011.61 1011.59 1011.59 1011.63 1011.70 1011.81 1011.94 1012.07
1009.14 1009.43 1009.79 1010.15 1010.47 1010.69 1010.77 1010.70 1010.49 1010.17 1009.80 1009.45 1009.16 1008.96 1008.88 1008.91 1009.04 1009.22 1009.44 1009.67 1009.91 1010.16 1010.41 1010.67 1010.94 1011.21 1011.48 1011.72 1011.92 1012.08 1012.18 1012.23 1012.24 1012.22 1012.20 1012.17 1012.16 1012.15 1012.14 1012.14 1012.13 1012.12 1012.10 1012.08 1012.08 1012.10 1012.14 1012.20 1012.30
1009.06 1009.37 1009.75 1010.13 1010.46 1010.66 1010.69 1010.54 1010.22 1009.79 1009.30 1008.85 1008.47 1008.23 1008.13 1008.16 1008.31 1008.54 1008.82 1009.11 1009.41 1009.71 1010.02 1010.34 1010.68 1011.02 1011.36 1011.66 1011.92 1012.12 1012.26 1012.34 1012.36 1012.37 1012.37 1012.38 1012.41 1012.46 1012.52 1012.58 1012.62 1012.64 1012.63 1012.60 1012.55 1012.49 1012.46 1012.45 1012.48
1009.14 1009.45 1009.84 1010.23 1010.55 1010.72 1010.68 1010.43 1009.99 1009.42 1008.81 1008.23 1007.75 1007.44 1007.29 1007.32 1007.48 1007.74 1008.06 1008.41 1008.77 1009.13 1009.51 1009.89 1010.30 1010.71 1011.12 1011.49 1011.81 1012.07 1012.24 1012.35 1012.40 1012.43 1012.46 1012.51 1012.59 1012.70 1012.83 1012.96 1013.07 1013.13 1013.14 1013.09 1013.00 1012.89 1012.78 1012.70 1012.67
1009.40 1009.71 1010.11 1010.50 1010.80 1010.92 1010.81 1010.46 1009.90 1009.19 1008.43 1007.72 1007.13 1006.73 1006.52 1006.51 1006.66 1006.93 1007.26 1007.64 1008.03 1008.44 1008.87 1009.31 1009.78 1010.26 1010.73 1011.17 1011.55 1011.86 1012.09 1012.23 1012.31 1012.37 1012.43 1012.52 1012.66 1012.83 1013.03 1013.23 1013.40 1013.52 1013.56 1013.52 1013.42 1013.28 1013.12 1012.98 1012.89
1009.83 1010.15 1010.55 1010.95 1011.22 1011.30 1011.12 1010.67 1009.99 1009.16 1008.28 1007.44 1006.74 1006.24 1005.96 1005.88 1005.99 1006.22 1006.54 1006.91 1007.30 1007.71 1008.16 1008.63 1009.13 1009.66 1010.19 1010.68 1011.13 1011.49 1011.76 1011.94 1012.07 1012.16 1012.25 1012.38 1012.56 1012.79 1013.05 1013.33 1013.57 1013.76 1013.85 1013.86 1013.77 1013.63 1013.46 1013.29 1013.17
1010.42 1010.74 1011.14 1011.53 1011.78 1011.82 1011.58 1011.07 1010.30 1009.38 1008.39 1007.46 1006.67 1006.08 1005.71 1005.56 1005.59 1005.76 1006.02 1006.32 1006.67 1007.04 1007.45 1007.91 1008.41 1008.95 1009.51 1010.05 1010.54 1010.95 1011.27 1011.49 1011.65 1011.78 1011.91 1012.07 1012.29 1012.57 1012.89 1013.24 1013.56 1013.82 1013.99 1014.07 1014.04 1013.94 1013.80 1013.64 1013.51
1011.13 1011.43 1011.82 1012.19 1012.42 1012.42 1012.14 1011.58 1010.77 1009.79 1008.76 1007.78 1006.93 1006.28 1005.84 1005.61 1005.55 1005.63 1005.78 1005.99 1006.23 1006.51 1006.84 1007.24 1007.69 1008.21 1008.76 1009.31 1009.83 1010.28 1010.64 1010.91 1011.11 1011.27 1011.43 1011.62 1011.87 1012.19 1012.57 1012.98 1013.37 1013.72 1013.99 1014.16 1014.22 1014.20 1014.12 1014.01 1013.90
1011.89 1012.16 1012.51 1012.83 1013.02 1012.98 1012.68 1012.10 1011.29 1010.31 1009.29 1008.31 1007.46 1006.78 1006.31 1006.01 1005.87 1005.84 1005.87 1005.95 1006.05 1006.20 1006.40 1006.69 1007.05 1007.50 1008.01 1008.55 1009.07 1009.54 1009.93 1010.24 1010.48 1010.67 1010.87 1011.09 1011.37 1011.72 1012.14 1012.60 1013.07 1013.50 1013.86 1014.14 1014.32 1014.40 1014.41 1014.37 1014.31
1012.66 1012.85 1013.12 1013.36 1013.48 1013.40 1013.07 1012.50 1011.72 1010.80 1009.84 1008.92 1008.12 1007.48 1007.01 1006.69 1006.49 1006.37 1006.28 1006.21 1006.16 1006.14 1006.18 1006.32 1006.56 1006.90 1007.33 1007.81 1008.31 1008.78 1009.19 1009.54 1009.82 1010.05 1010.29 1010.54 1010.85 1011.23 1011.68 1012.19 1012.71 1013.21 1013.67 1014.05 1014.34 1014.54 1014.65 1014.70 1014.70
1013.37 1013.45 1013.60 1013.72 1013.74 1013.59 1013.23 1012.67 1011.94 1011.11 1010.26 1009.46 1008.77 1008.22 1007.80 1007.50 1007.27 1007.08 1006.89 1006.69 1006.48 1006.30 1006.17 1006.13 1006.22 1006.42 1006.74 1007.15 1007.60 1008.05 1008.47 1008.84 1009.17 1009.45 1009.73 1010.03 1010.37 1010.79 1011.26 1011.80 1012.36 1012.92 1013.45 1013.92 1014.30 1014.61 1014.82 1014.96 1015.02
Thickness
5809 5812 5812 5806 5798 5792 5782 5787 5794 5792 5793 5799 5800 5798 5791 5785 5780 5771 5791 5800 5799 5799 5797 5792 5789 5788 5788 5788 5787 5787 5786 5786 5785 5785 5784 5784 5784 5784 5784 5782 5781 5780 5779 5778 5778 5777 5775 5774 5772
5817 5815 5810 5806 5795 5779 5777 5789 5790 5792 5796 5801 5800 5797 5791 5786 5791 5790 5794 5797 5799 5799 5797 5792 5788 5787 5786 5786 5786 5785 5785 5784 5784 5784 5783 5782 5782 5782 5782 5781 5779 5779 5778 5777 5777 5776 5774 5773 5771
5819 5817 5809 5805 5792 5781 5779 5792 5793 5797 5801 5799 5794 5794 5789 5784 5789 5791 5796 5798 5799 5798 5795 5791 5788 5786 5785 5785 5784 5784 5783 5783 5783 5782 5781 5780 5780 5780 5779 5779 5778 5777 5777 5776 5775 5774 5773 5772 5771
5820 5814 5811 5800 5787 5791 5793 5797 5799 5796 5798 5799 5796 5788 5789 5792 5793 5796 5798 5799 5798 5796 5795 5791 5787 5785 5784 5783 5783 5782 5782 5782 5782 5781 5779 5779 5778 5779 5778 5777 5776 5776 5775 5775 5774 5773 5772 5771 5770
5822 5814 5804 5795 5791 5796 5803 5803 5803 5797 5794 5796 5796 5784 5783 5792 5798 5799 5798 5798 5797 5796 5794 5791 5785 5784 5783 5782 5782 5781 5781 5781 5780 5779 5778 5777 5776 5776 5776 5775 5775 5774 5773 5773 5772 5771 5770 5770 5769
5819 5817 5801 5788 5790 5799 5804 5808 5805 5798 5795 5796 5794 5786 5782 5793 5795 5797 5799 5798 5797 5795 5793 5790 5785 5783 5782 5782 5781 5781 5780 5780 5779 5778 5777 5776 5775 5775 5774 5774 5773 5773 5772 5771 5770 5769 5769 5768 5767
5817 5814 5801 5797 5794 5796 5802 5810 5805 5799 5794 5796 5799 5787 5785 5792 5796 5799 5798 5797 5796 5795 5793 5792 5789 5785 5783 5782 5781 5780 5780 5779 5778 5777 5776 5776 5775 5774 5773 5772 5772 5771 5770 5769 5768 5767 5767 5766 5765
5827 5819 5806 5803 5798 5796 5807 5810 5808 5804 5798 5805 5804 5789 5783 5790 5798 5799 5797 5795 5794 5794 5793 5791 5790 5787 5786 5784 5781 5780 5779 5778 5778 5777 5776 5775 5775 5774 5773 5772 5771 5770 5769 5768 5767 5766 5765 5764 5763
5831 5816 5803 5803 5802 5801 5811 5807 5808 5812 5805 5802 5802 5799 5796 5797 5798 5796 5793 5791 5790 5789 5791 5791 5790 5788 5787 5786 5783 5782 5780 5779 5779 5778 5776 5776 5777 5777 5774 5771 5769 5768 5767 5766 5765 5764 5764 5763 5762
5827 5811 5806 5813 5816 5812 5812 5810 5809 5806 5799 5796 5796 5798 5799 5798 5795 5792 5789 5787 5786 5786 5788 5790 5789 5788 5787 5786 5784 5784 5783 5781 5780 5778 5778 5778 5777 5776 5775 5770 5768 5767 5766 5765 5764 5763 5763 5764 5764
5826 5813 5815 5819 5823 5821 5814 5812 5815 5807 5796 5797 5794 5794 5796 5795 5793 5791 5789 5788 5787 5787 5787 5788 5787 5786 5786 5785 5784 5784 5783 5781 5780 5778 5777 5776 5776 5776 5775 5773 5771 5769 5768 5767 5765 5764 5765 5765 5765
5823 5820 5821 5821 5824 5821 5816 5814 5811 5807 5803 5808 5805 5801 5797 5794 5792 5790 5788 5788 5788 5787 5787 5788 5787 5785 5783 5783 5784 5784 5783 5781 5780 5777 5776 5776 5775 5775 5774 5772 5771 5770 5769 5767 5766 5764 5764 5763 5763
5823 5821 5825 5826 5826 5823 5819 5814 5809 5806 5811 5811 5807 5802 5797 5796 5794 5792 5791 5790 5788 5786 5786 5786 5785 5783 5782 5781 5781 5783 5782 5781 5779 5776 5775 5775 5775 5774 5774 5771 5770 5770 5769 5767 5765 5764 5763 5763 5762
5826 5827 5826 5827 5825 5822 5815 5814 5811 5805 5811 5807 5803 5800 5799 5797 5795 5792 5790 5788 5787 5786 5786 5786 5785 5783 5781 5780 5779 5780 5781 5779 5779 5777 5775 5773 5773 5772 5772 5770 5769 5769 5768 5767 5765 5764 5763 5762 5762
5834 5825 5823 5825 5824 5823 5819 5806 5806 5810 5811 5804 5801 5799 5798 5798 5796 5793 5791 5790 5789 5787 5786 5785 5784 5783 5781 5781 5780 5781 5780 5780 5778 5776 5774 5772 5772 5771 5771 5770 5769 5768 5767 5765 5764 5763 5762 5762 5761
5832 5825 5814 5820 5824 5824 5816 5797 5808 5815 5810 5803 5801 5799 5797 5797 5798 5796 5796 5793 5792 5789 5786 5785 5786 5783 5781 5780 5779 5781 5780 5778 5777 5776 5774 5772 5771 5771 5770 5770 5769 5767 5767 5765 5764 5763 5762 5760 5760
5825 5816 5812 5815 5825 5824 5817 5805 5811 5818 5813 5806 5803 5802 5800 5798 5798 5798 5798 5795 5793 5790 5787 5785 5784 5783 5781 5780 5779 5779 5778 5777 5777 5776 5774 5772 5771 5771 5770 5769 5768 5767 5767 5765 5764 5762 5761 5759 5758
5814 5817 5814 5813 5822 5821 5814 5811 5815 5817 5815 5810 5807 5805 5802 5799 5798 5799 5799 5797 5794 5791 5788 5785 5783 5782 5781 5780 5779 5779 5777 5777 5776 5775 5772 5771 5771 5770 5770 5769 5767 5767 5766 5764 5763 5760 5759 5758 5758
5826 5820 5814 5817 5826 5820 5814 5812 5815 5818 5815 5812 5810 5808 5804 5802 5804 5803 5800 5798 5795 5791 5787 5785 5782 5781 5780 5779 5778 5777 5776 5777 5776 5775 5772 5771 5770 5769 5768 5769 5766 5766 5765 5763 5763 5761 5759 5758 5758
5827 5819 5816 5819 5825 5820 5814 5814 5820 5820 5816 5816 5813 5810 5808 5805 5804 5802 5800 5799 5795 5791 5788 5785 5783 5782 5780 5779 5778 5777 5777 5777 5777 5775 5773 5771 5770 5769 5769 5766 5767 5765 5763 5762 5761 5759 5759 5758 5759
5824 5822 5819 5815 5820 5824 5816 5811 5816 5820 5822 5820 5819 5818 5816 5810 5806 5803 5801 5799 5797 5793 5790 5789 5785 5783 5781 5780 5780 5778 5776 5775 5774 5773 5772 5771 5770 5768 5767 5766 5766 5765 5765 5763 5760 5759 5758 5756 5758
5818 5829 5826 5820 5815 5814 5815 5803 5814 5819 5817 5818 5819 5820 5819 5816 5813 5809 5806 5802 5800 5797 5795 5791 5787 5785 5783 5781 5779 5777 5774 5771 5772 5772 5772 5770 5769 5768 5767 5766 5765 5765 5765 5762 5762 5762 5760 5757 5756
5824 5832 5828 5824 5819 5816 5817 5810 5815 5821 5813 5818 5822 5824 5824 5822 5818 5814 5811 5807 5804 5802 5799 5794 5789 5785 5783 5781 5780 5776 5775 5773 5774 5772 5770 5769 5769 5767 5766 5765 5764 5764 5764 5763 5762 5760 5759 5759 5758
5830 5827 5824 5825 5823 5802 5812 5807 5807 5820 5819 5823 5826 5827 5826 5825 5822 5818 5815 5811 5807 5805 5801 5797 5791 5786 5784 5782 5780 5777 5774 5772 5771 5769 5768 5769 5770 5768 5766 5765 5764 5764 5763 5762 5761 5760 5759 5758 5757
5827 5817 5804 5799 5800 5801 5816 5809 5811 5827 5831 5830 5829 5829 5829 5827 5823 5819 5815 5811 5808 5805 5802 5799 5793 5788 5786 5784 5781 5778 5776 5773 5771 5770 5769 5769 5769 5768 5766 5766 5764 5763 5762 5762 5761 5759 5759 5758 5756
5822 5821 5799 5786 5791 5806 5811 5807 5821 5834 5837 5838 5837 5834 5830 5827 5825 5821 5817 5813 5810 5807 5803 5799 5794 5790 5788 5786 5783 5780 5777 5776 5775 5773 5772 5771 5770 5769 5767 5765 5764 5763 5762 5762 5761 5760 5759 5757 5755
5817 5818 5827 5813 5806 5800 5809 5815 5825 5833 5831 5833 5833 5831 5828 5827 5825 5822 5819 5816 5812 5808 5804 5801 5796 5792 5789 5787 5784 5781 5778 5777 5776 5774 5772 5771 5769 5769 5766 5765 5763 5762 5761 5760 5759 5759 5757 5756 5755
5826 5824 5816 5807 5785 5786 5800 5807 5811 5817 5820 5825 5826 5826 5828 5828 5826 5824 5821 5817 5814 5810 5806 5802 5798 5793 5791 5788 5786 5784 5780 5778 5776 5774 5772 5770 5768 5767 5765 5764 5762 5761 5759 5758 5757 5756 5754 5752 5751
5810 5811 5809 5808 5807 5791 5789 5803 5824 5820 5822 5822 5824 5826 5827 5827 5827 5825 5821 5818 5814 5811 5807 5801 5797 5793 5790 5788 5785 5783 5781 5778 5776 5774 5772 5769 5767 5765 5763 5762 5760 5758 5757 5756 5754 5754 5751 5750 5748
5816 5812 5809 5795 5791 5798 5797 5803 5828 5827 5829 5826 5825 5825 5826 5826 5826 5824 5821 5817 5813 5809 5806 5801 5798 5794 5791 5788 5785 5782 5780 5778 5775 5773 5771 5768 5766 5764 5762 5760 5758 5756 5755 5753 5752 5750 5750 5748 5746